sat.trackr.live / text

‹ back to catalog

STARLINK-37488

NORAD 68859 · 2026-094W

PAYLOAD ACTIVE UNKNOWN

§ Identity

Operator
Country
US
Launch date
2026-04-26
Launch site
AFWTR
Launch vehicle
Mass (kg)
RCS (m²)

Purposes: comms

External: N2YO · Heavens-Above · Gunter

§ Orbital elements

Epoch: 2026-09-19T11:20:17.257344Z

Period
93.91 min
Inclination
97.2841°
Eccentricity
0.0001010
Mean motion
15.33449848 rev/d
Perigee alt
464.8 km
Apogee alt
466.2 km
Semi-major
6,843.7 km
B*
1.3496e-4
RAAN
275.6634°
Arg perigee
57.6323°
Mean anomaly
302.5017°
Rev number
2,250

§ Raw data

STARLINK-374881 68859U 26094W   26262.47242196  .00004285  00000+0  13496-3 0  99942 68859  97.2841 275.6634 0001010  57.6323 302.5017 15.33449848 22506

JSON: /api/v1/satellites/68859 · /tle

For live sub-satellite position, see the globe view (requires WebGL).

§ Visibility from observer

Set your observer location to see the next 7 days of passes ≥ 10°. The values pass through the URL so the page stays shareable.

No JS? Fill the form by hand. The geolocation button needs JavaScript.